Time,TemperatureF,DewpointF,PressureIn,WindDirection,WindDirectionDegrees,WindSpeedMPH,WindSpeedGustMPH,Humidity,HourlyPrecipIn,Conditions,Clouds,dailyrainin,SolarRadiationWatts/m^2,SoftwareType,DateUTC
2013-03-17 00:04:00,68.0,20.0,29.63,WNW,283,0.0,3.0,16,0.00,,,0.00,0,weatherlink.com 1.10,2013-03-17 06:04:00,
2013-03-17 00:19:00,67.3,19.0,29.63,WNW,283,1.0,3.0,16,0.00,,,0.00,0,weatherlink.com 1.10,2013-03-17 06:19:00,
2013-03-17 00:34:00,67.2,19.0,29.63,WNW,283,0.0,4.0,16,0.00,,,0.00,0,weatherlink.com 1.10,2013-03-17 06:34:00,
2013-03-17 00:49:00,67.0,19.0,29.63,WNW,283,0.0,3.0,16,0.00,,,0.00,0,weatherlink.com 1.10,2013-03-17 06:49:00,
2013-03-17 01:04:00,67.0,19.0,29.63,WNW,282,0.0,5.0,16,0.00,,,0.00,0,weatherlink.com 1.10,2013-03-17 07:04:00,
2013-03-17 01:19:00,66.8,19.0,29.63,West,281,2.0,4.0,16,0.00,,,0.00,0,weatherlink.com 1.10,2013-03-17 07:19:00,
2013-03-17 01:34:00,66.7,19.0,29.63,West,267,4.0,9.0,16,0.00,,,0.00,0,weatherlink.com 1.10,2013-03-17 07:34:00,
2013-03-17 01:49:00,66.7,17.0,29.63,WSW,248,4.0,10.0,15,0.00,,,0.00,0,weatherlink.com 1.10,2013-03-17 07:49:00,
2013-03-17 02:04:00,66.1,17.0,29.63,WSW,242,1.0,8.0,15,0.00,,,0.00,0,weatherlink.com 1.10,2013-03-17 08:04:00,
2013-03-17 02:19:00,65.4,16.0,29.64,WSW,246,5.0,5.0,15,0.00,,,0.00,0,weatherlink.com 1.10,2013-03-17 08:19:00,
2013-03-17 02:34:00,65.4,16.0,29.64,WSW,248,1.0,5.0,15,0.00,,,0.00,0,weatherlink.com 1.10,2013-03-17 08:34:00,
2013-03-17 02:49:00,66.4,17.0,29.64,WSW,248,2.0,11.0,15,0.00,,,0.00,0,weatherlink.com 1.10,2013-03-17 08:49:00,
2013-03-17 03:04:00,66.2,17.0,29.64,West,263,1.0,10.0,15,0.00,,,0.00,0,weatherlink.com 1.10,2013-03-17 09:04:00,
2013-03-17 03:19:00,65.4,16.0,29.64,West,264,0.0,5.0,15,0.00,,,0.00,0,weatherlink.com 1.10,2013-03-17 09:19:00,
2013-03-17 03:34:00,64.2,17.0,29.64,West,264,0.0,1.0,16,0.00,,,0.00,0,weatherlink.com 1.10,2013-03-17 09:34:00,
2013-03-17 03:49:00,63.1,16.0,29.64,West,264,0.0,0.0,16,0.00,,,0.00,0,weatherlink.com 1.10,2013-03-17 09:49:00,
2013-03-17 04:04:00,61.5,17.0,29.64,West,264,0.0,0.0,18,0.00,,,0.00,0,weatherlink.com 1.10,2013-03-17 10:04:00,
2013-03-17 04:20:00,60.4,16.0,29.64,West,264,0.0,0.0,18,0.00,,,0.00,0,weatherlink.com 1.10,2013-03-17 10:20:00,
2013-03-17 04:35:00,59.9,17.0,29.64,West,264,0.0,2.0,19,0.00,,,0.00,0,weatherlink.com 1.10,2013-03-17 10:35:00,
2013-03-17 04:50:00,59.6,18.0,29.64,West,264,1.0,2.0,20,0.00,,,0.00,0,weatherlink.com 1.10,2013-03-17 10:50:00,
2013-03-17 05:05:00,60.1,19.0,29.64,West,264,0.0,3.0,20,0.00,,,0.00,0,weatherlink.com 1.10,2013-03-17 11:05:00,
2013-03-17 05:20:00,60.7,19.0,29.64,West,264,1.0,3.0,20,0.00,,,0.00,0,weatherlink.com 1.10,2013-03-17 11:20:00,
2013-03-17 05:35:00,60.3,19.0,29.65,West,264,0.0,3.0,20,0.00,,,0.00,0,weatherlink.com 1.10,2013-03-17 11:35:00,
2013-03-17 05:50:00,59.5,19.0,29.65,West,264,0.0,3.0,21,0.00,,,0.00,0,weatherlink.com 1.10,2013-03-17 11:50:00,
2013-03-17 06:05:00,60.2,20.0,29.65,West,264,1.0,3.0,21,0.00,,,0.00,0,weatherlink.com 1.10,2013-03-17 12:05:00,
2013-03-17 06:20:00,60.3,19.0,29.66,West,264,0.0,5.0,20,0.00,,,0.00,0,weatherlink.com 1.10,2013-03-17 12:20:00,
2013-03-17 06:35:00,60.7,19.0,29.66,West,264,1.0,5.0,20,0.00,,,0.00,0,weatherlink.com 1.10,2013-03-17 12:35:00,
2013-03-17 06:50:00,61.4,19.0,29.67,West,264,0.0,3.0,19,0.00,,,0.00,0,weatherlink.com 1.10,2013-03-17 12:50:00,
2013-03-17 07:05:00,60.3,20.0,29.67,West,264,0.0,2.0,21,0.00,,,0.00,0,weatherlink.com 1.10,2013-03-17 13:05:00,
2013-03-17 07:20:00,58.6,20.0,29.67,West,264,0.0,2.0,22,0.00,,,0.00,9,weatherlink.com 1.10,2013-03-17 13:20:00,
2013-03-17 07:35:00,58.5,23.0,29.67,West,264,0.0,1.0,25,0.00,,,0.00,18,weatherlink.com 1.10,2013-03-17 13:35:00,
2013-03-17 07:50:00,59.0,20.0,29.68,West,264,0.0,1.0,22,0.00,,,0.00,54,weatherlink.com 1.10,2013-03-17 13:50:00,
2013-03-17 08:05:00,59.9,20.0,29.68,West,264,1.0,3.0,21,0.00,,,0.00,107,weatherlink.com 1.10,2013-03-17 14:05:00,
2013-03-17 08:20:00,61.0,21.0,29.68,West,264,3.0,5.0,21,0.00,,,0.00,163,weatherlink.com 1.10,2013-03-17 14:20:00,
2013-03-17 08:35:00,62.0,20.0,29.68,West,263,1.0,6.0,20,0.00,,,0.00,227,weatherlink.com 1.10,2013-03-17 14:35:00,
2013-03-17 08:50:00,62.9,20.0,29.69,West,263,1.0,3.0,19,0.00,,,0.00,283,weatherlink.com 1.10,2013-03-17 14:50:00,
2013-03-17 09:05:00,63.9,21.0,29.69,WSW,242,9.0,12.0,19,0.00,,,0.00,334,weatherlink.com 1.10,2013-03-17 15:05:00,
2013-03-17 09:20:00,66.1,23.0,29.69,WSW,248,2.0,12.0,19,0.00,,,0.00,385,weatherlink.com 1.10,2013-03-17 15:20:00,
2013-03-17 09:36:00,66.9,22.0,29.69,WSW,250,2.0,9.0,18,0.00,,,0.00,432,weatherlink.com 1.10,2013-03-17 15:36:00,
2013-03-17 09:51:00,67.2,21.0,29.69,WSW,250,2.0,10.0,17,0.00,,,0.00,482,weatherlink.com 1.10,2013-03-17 15:51:00,
2013-03-17 10:06:00,68.3,20.0,29.69,WSW,237,6.0,15.0,16,0.00,,,0.00,529,weatherlink.com 1.10,2013-03-17 16:06:00,
2013-03-17 10:51:00,71.3,23.0,29.69,WSW,246,5.0,14.0,16,0.00,,,0.00,654,weatherlink.com 1.10,2013-03-17 16:51:00,
2013-03-17 11:06:00,71.8,23.0,29.68,WSW,245,15.0,19.0,16,0.00,,,0.00,689,weatherlink.com 1.10,2013-03-17 17:06:00,
2013-03-17 11:21:00,72.1,23.0,29.68,WSW,241,2.0,15.0,16,0.00,,,0.00,722,weatherlink.com 1.10,2013-03-17 17:21:00,
2013-03-17 12:06:00,75.0,26.0,29.66,WSW,245,9.0,12.0,16,0.00,,,0.00,793,weatherlink.com 1.10,2013-03-17 18:06:00,
2013-03-17 12:21:00,75.0,26.0,29.66,West,278,5.0,17.0,16,0.00,,,0.00,809,weatherlink.com 1.10,2013-03-17 18:21:00,
2013-03-17 12:36:00,75.4,26.0,29.66,West,265,4.0,15.0,16,0.00,,,0.00,830,weatherlink.com 1.10,2013-03-17 18:36:00,
2013-03-17 12:51:00,75.0,26.0,29.65,WSW,253,2.0,18.0,16,0.00,,,0.00,835,weatherlink.com 1.10,2013-03-17 18:51:00,
2013-03-17 13:06:00,76.0,25.0,29.64,WSW,244,9.0,15.0,15,0.00,,,0.00,844,weatherlink.com 1.10,2013-03-17 19:06:00,
2013-03-17 13:22:00,76.4,25.0,29.62,WSW,244,2.0,21.0,15,0.00,,,0.00,846,weatherlink.com 1.10,2013-03-17 19:22:00,
2013-03-17 13:36:00,76.1,25.0,29.62,WSW,244,11.0,16.0,15,0.00,,,0.00,837,weatherlink.com 1.10,2013-03-17 19:36:00,
2013-03-17 13:51:00,77.0,26.0,29.61,West,280,3.0,14.0,15,0.00,,,0.00,830,weatherlink.com 1.10,2013-03-17 19:51:00,
2013-03-17 14:07:00,77.3,24.0,29.59,West,266,7.0,14.0,14,0.00,,,0.00,810,weatherlink.com 1.10,2013-03-17 20:07:00,
2013-03-17 14:22:00,77.7,23.0,29.58,SW,236,5.0,22.0,13,0.00,,,0.00,791,weatherlink.com 1.10,2013-03-17 20:22:00,
2013-03-17 14:37:00,78.0,25.0,29.57,SW,228,7.0,20.0,14,0.00,,,0.00,772,weatherlink.com 1.10,2013-03-17 20:37:00,
2013-03-17 14:52:00,78.1,25.0,29.56,WSW,245,7.0,19.0,14,0.00,,,0.00,719,weatherlink.com 1.10,2013-03-17 20:52:00,
2013-03-17 15:07:00,78.7,24.0,29.56,SW,236,6.0,26.0,13,0.00,,,0.00,717,weatherlink.com 1.10,2013-03-17 21:07:00,
2013-03-17 15:22:00,80.0,25.0,29.55,WSW,254,6.0,18.0,13,0.00,,,0.00,666,weatherlink.com 1.10,2013-03-17 21:22:00,
2013-03-17 15:37:00,79.9,25.0,29.55,WSW,238,5.0,20.0,13,0.00,,,0.00,638,weatherlink.com 1.10,2013-03-17 21:37:00,
2013-03-17 15:52:00,79.9,25.0,29.55,West,279,15.0,22.0,13,0.00,,,0.00,610,weatherlink.com 1.10,2013-03-17 21:52:00,
2013-03-17 16:22:00,79.6,25.0,29.55,West,279,7.0,24.0,13,0.00,,,0.00,531,weatherlink.com 1.10,2013-03-17 22:22:00,
2013-03-17 16:37:00,79.6,23.0,29.54,West,261,6.0,23.0,12,0.00,,,0.00,469,weatherlink.com 1.10,2013-03-17 22:37:00,
2013-03-17 16:52:00,79.7,23.0,29.55,West,269,7.0,25.0,12,0.00,,,0.00,396,weatherlink.com 1.10,2013-03-17 22:52:00,
2013-03-17 17:22:00,79.1,22.0,29.54,WNW,283,3.0,19.0,12,0.00,,,0.00,262,weatherlink.com 1.10,2013-03-17 23:22:00,
2013-03-17 17:37:00,78.7,22.0,29.55,WNW,292,13.0,18.0,12,0.00,,,0.00,241,weatherlink.com 1.10,2013-03-17 23:37:00,
2013-03-17 17:52:00,77.8,21.0,29.55,WNW,298,2.0,22.0,12,0.00,,,0.00,151,weatherlink.com 1.10,2013-03-17 23:52:00,
2013-03-17 18:07:00,77.2,21.0,29.55,West,263,5.0,20.0,12,0.00,,,0.00,111,weatherlink.com 1.10,2013-03-18 00:07:00,
2013-03-17 18:22:00,76.3,22.0,29.56,WNW,286,12.0,23.0,13,0.00,,,0.00,67,weatherlink.com 1.10,2013-03-18 00:22:00,
2013-03-17 18:37:00,75.7,21.0,29.56,WNW,286,9.0,21.0,13,0.00,,,0.00,40,weatherlink.com 1.10,2013-03-18 00:37:00,
2013-03-17 18:52:00,75.4,21.0,29.57,West,275,6.0,20.0,13,0.00,,,0.00,30,weatherlink.com 1.10,2013-03-18 00:52:00,
2013-03-17 19:07:00,74.9,21.0,29.57,WNW,300,7.0,16.0,13,0.00,,,0.00,9,weatherlink.com 1.10,2013-03-18 01:07:00,
2013-03-17 19:22:00,74.3,20.0,29.58,WNW,282,7.0,14.0,13,0.00,,,0.00,0,weatherlink.com 1.10,2013-03-18 01:22:00,
2013-03-17 19:37:00,73.8,22.0,29.59,West,279,9.0,15.0,14,0.00,,,0.00,0,weatherlink.com 1.10,2013-03-18 01:37:00,
2013-03-17 19:52:00,73.5,20.0,29.60,WNW,283,4.0,16.0,13,0.00,,,0.00,0,weatherlink.com 1.10,2013-03-18 01:52:00,
2013-03-17 20:07:00,73.3,21.0,29.61,West,279,4.0,15.0,14,0.00,,,0.00,0,weatherlink.com 1.10,2013-03-18 02:07:00,
2013-03-17 20:22:00,72.9,19.0,29.61,West,279,12.0,15.0,13,0.00,,,0.00,0,weatherlink.com 1.10,2013-03-18 02:22:00,
2013-03-17 20:52:00,72.6,21.0,29.62,WNW,292,13.0,22.0,14,0.00,,,0.00,0,weatherlink.com 1.10,2013-03-18 02:52:00,
2013-03-17 21:07:00,72.6,19.0,29.62,WNW,286,3.0,16.0,13,0.00,,,0.00,0,weatherlink.com 1.10,2013-03-18 03:07:00,
2013-03-17 21:22:00,72.4,19.0,29.63,WNW,283,6.0,23.0,13,0.00,,,0.00,0,weatherlink.com 1.10,2013-03-18 03:22:00,
2013-03-17 21:37:00,72.1,19.0,29.64,West,281,3.0,20.0,13,0.00,,,0.00,0,weatherlink.com 1.10,2013-03-18 03:37:00,
2013-03-17 21:52:00,72.0,18.0,29.65,West,280,1.0,20.0,13,0.00,,,0.00,0,weatherlink.com 1.10,2013-03-18 03:52:00,
2013-03-17 22:07:00,71.8,18.0,29.65,WNW,284,1.0,19.0,13,0.00,,,0.00,0,weatherlink.com 1.10,2013-03-18 04:07:00,
2013-03-17 22:22:00,71.3,20.0,29.66,WSW,256,5.0,12.0,14,0.00,,,0.00,0,weatherlink.com 1.10,2013-03-18 04:22:00,
2013-03-17 22:37:00,70.8,19.0,29.67,West,269,11.0,15.0,14,0.00,,,0.00,0,weatherlink.com 1.10,2013-03-18 04:37:00,
2013-03-17 23:07:00,69.3,18.0,29.68,NW,304,1.0,7.0,14,0.00,,,0.00,0,weatherlink.com 1.10,2013-03-18 05:07:00,
2013-03-17 23:22:00,68.6,19.0,29.69,WNW,291,0.0,7.0,15,0.00,,,0.00,0,weatherlink.com 1.10,2013-03-18 05:22:00,
2013-03-17 23:39:00,68.0,20.0,29.70,WNW,291,0.0,3.0,16,0.00,,,0.00,0,weatherlink.com 1.10,2013-03-18 05:39:00,
2013-03-17 23:53:00,67.9,20.0,29.70,WNW,287,1.0,11.0,16,0.00,,,0.00,0,weatherlink.com 1.10,2013-03-18 05:53:00,